Flag Weather past 2 weeks in New Salem, North Dakota, U.S.A.

Now
5 °F

Overcast.


Feels Like: -9 °F
Forecast: 2 / 18 °F
Wind: 9 mph from Southeast

Location: Bismarck Municipal Airport

Current Time: Nov 27, 2014 at 11:12:02 AM

Latest Report: Nov 27, 2014 at 10:52 AM


Visibility: 10 mi

Pressure: 30.42 "Hg

Humidity: 83%

Dew point: 1 °F

Location of New SalemLocation

Historic Weather in New Salem — Graph

°F

New Salem temperature yesterday

Maximum temperature yesterday: 15 °F (at 12:52 AM)
Minimum temperature yesterday: -11 °F (at 11:52 PM)
Average temperature yesterday: 5 °F

Past Weeks' High & Low Weather Summary

 TemperatureHumidityPressure
High47 °F (Nov 21, 2:52 PM)97% (Nov 22, 10:52 PM)30.73 "Hg (Nov 22, 10:52 PM)
Low-13 °F (Nov 14, 6:52 AM)29% (Nov 24, 1:52 PM)29.39 "Hg (Nov 22, 2:52 PM)
Average16 °F75%30.13 "Hg
* Reported Nov 12 9:03 AM — Nov 27 9:52 AM, New Salem, Weather by CustomWeather, © 2014

Note: Actual official high and low records may vary slightly from our data, if they occured in-between our weather recording intervals... More about our weather records

Advertising

New Salem weather history for previous 24 hours

 ConditionsComfort  
Time TempWeatherWind HumidityBarometerVisibility
9:52 AM
Nov 27
2 °FMostly cloudy.9 mph88%30.44 "Hg10 mi
8:52 AM-6 °FPartly sunny.8 mphN/A30.49 "Hg10 mi
7:52 AM-9 °FClear.8 mph78%30.51 "Hg10 mi
6:52 AM-4 °FPartly cloudy.6 mph79%30.52 "Hg10 mi
5:52 AM-8 °FPassing clouds.7 mph83%30.53 "Hg10 mi
4:52 AM-7 °FOvercast.7 mph79%30.56 "Hg10 mi
3:52 AM-9 °FOvercast.7 mph82%30.58 "Hg10 mi
2:52 AMN/AOvercast.8 mphN/A30.59 "Hg10 mi
1:52 AM-9 °FPassing clouds.3 mph78%30.59 "Hg10 mi
12:52 AM-11 °FClear.7 mph82%30.61 "Hg10 mi
11:52 PM
Nov 26
-11 °FClear.7 mph78%30.62 "Hg10 mi
10:52 PM-7 °FPassing clouds.5 mph79%30.62 "Hg10 mi
9:52 PM-5 °FOvercast.3 mphN/A30.61 "Hg10 mi
8:52 PM-5 °FPassing clouds.8 mphN/A30.60 "Hg10 mi
7:52 PM-6 °FClear.6 mph78%30.60 "Hg10 mi
6:52 PM-6 °FClear.5 mphN/A30.59 "Hg10 mi
5:52 PM1 °FPassing clouds.5 mph83%30.58 "Hg10 mi
4:52 PM5 °FPassing clouds.6 mph76%30.56 "Hg10 mi
3:52 PM8 °FSunny.6 mph72%30.53 "Hg10 mi
2:52 PM10 °FCloudy.7 mph69%30.51 "Hg10 mi
1:52 PM11 °FOvercast.3 mph70%30.50 "Hg9 mi
12:52 PM11 °FOvercast.5 mph70%30.50 "Hg8 mi
11:52 AM11 °FOvercast.No wind70%30.49 "Hg10 mi
Weather by CustomWeather, © 2014

See weather overviewHow to use our weather pages